GW0637 Weather Reports


time (UTC)temp
F
wind
direction
speed
knots
gust
knots
rain 1hr
in
rain 24hr
in
rain mn
in
humidity
%
barometer
mb
20260504035225 54 7 11.3 13.9 0.00 0.00 0.00 46 1008.5
20260504034722 52 5 7.0 7.8 0.00 0.00 0.00 49 1008.1
20260504034219 51 352 5.2 6.1 0.00 0.00 0.00 51 1008.0
20260504033717 52 333 3.5 4.3 0.00 0.00 0.00 51 1007.7
20260504033214 53 331 2.6 4.3 0.00 0.00 0.00 48 1007.6
20260504032711 55 358 4.3 5.2 0.00 0.00 0.00 44 1007.6
20260504032208 56 351 2.6 4.3 0.00 0.00 0.00 43 1007.6
20260504031705 57 356 4.3 7.8 0.00 0.00 0.00 41 1007.6
20260504031202 57 23 4.3 6.1 0.00 0.00 0.00 40 1007.5
20260504030658 58 8 3.5 7.0 0.00 0.00 0.00 40 1007.3
20260504030155 58 62 5.2 7.0 0.00 0.00 0.00 39 1007.1
20260504025652 59 6 5.2 7.8 0.00 0.00 0.00 38 1007.0
20260504025148 59 33 5.2 7.8 0.00 0.00 0.00 37 1007.1
20260504024646 59 15 7.0 8.7 0.00 0.00 0.00 38 1006.8
20260504024142 59 42 3.5 7.8 0.00 0.00 0.00 37 1006.9
20260504023639 60 27 7.8 11.3 0.00 0.00 0.00 37 1006.8
20260504023135 60 13 6.1 8.7 0.00 0.00 0.00 36 1006.7
20260504022632 60 8 4.3 8.7 0.00 0.00 0.00 37 1006.7
20260504022127 61 1 6.1 11.3 0.00 0.00 0.00 36 1006.8
20260504021626 61 74 6.1 8.7 0.00 0.00 0.00 36 1006.8
20260504021122 62 8 7.8 9.6 0.00 0.00 0.00 35 1006.8
20260504020619 62 11 7.8 12.2 0.00 0.00 0.00 34 1006.7
20260504020115 63 16 9.6 14.8 0.00 0.00 0.00 34 1006.7
20260504015612 64 12 9.6 18.2 0.00 0.00 0.00 33 1006.6
20260504015108 64 25 7.0 8.7 0.00 0.00 0.00 34 1006.4
20260504014604 65 36 7.8 15.6 0.00 0.00 0.00 32 1006.5
20260504014101 66 9 11.3 17.4 0.00 0.00 0.00 31 1006.5
20260504013559 66 18 7.8 11.3 0.00 0.00 0.00 29 1006.5
20260504013055 67 23 7.8 14.8 0.00 0.00 0.00 29 1006.4
20260504012553 67 6 7.0 13.0 0.00 0.00 0.00 29 1006.3
20260504012051 68 21 9.6 15.6 0.00 0.00 0.00 28 1006.5
20260504011547 68 353 10.4 14.8 0.00 0.00 0.00 27 1006.4
20260504011043 69 353 12.2 18.2 0.00 0.00 0.00 26 1006.5
20260504010539 69 2 9.6 17.4 0.00 0.00 0.00 26 1006.2
20260504010036 69 2 11.3 17.4 0.00 0.00 0.00 26 1006.4
20260504005532 70 15 9.6 13.0 0.00 0.00 0.00 26 1006.4
20260504005030 71 348 7.0 13.0 0.00 0.00 0.00 26 1006.2
20260504004528 71 332 13.0 15.6 0.00 0.00 0.00 25 1006.2
20260504004024 71 332 8.7 12.2 0.00 0.00 0.00 25 1006.0
20260504003520 72 306 13.0 18.2 0.00 0.00 0.00 25 1006.4
20260504003017 72 320 9.6 15.6 0.00 0.00 0.00 25 1006.4
20260504002514 72 314 11.3 13.9 0.00 0.00 0.00 23 1006.2
20260504002012 72 318 7.8 13.9 0.00 0.00 0.00 24 1006.2
20260504001509 72 326 7.8 14.8 0.00 0.00 0.00 24 1006.5
20260504001005 73 313 9.6 13.9 0.00 0.00 0.00 24 1006.3
20260504000503 72 298 9.6 18.2 0.00 0.00 0.00 23 1006.6
20260504000000 72 357 7.0 15.6 0.00 0.00 0.00 23 1006.6
20260503235458 72 325 11.3 15.6 0.00 0.00 0.00 23 1006.6
20260503234955 72 319 12.2 15.6 0.00 0.00 0.00 23 1006.8
20260503234452 72 312 12.2 14.8 0.00 0.00 0.00 23 1006.8
20260503233950 72 317 12.2 17.4 0.00 0.00 0.00 24 1006.7
20260503233446 72 345 14.8 19.1 0.00 0.00 0.00 24 1006.6
20260503232943 71 289 15.6 19.1 0.00 0.00 0.00 23 1006.6
20260503232440 72 322 14.8 17.4 0.00 0.00 0.00 23 1006.6
20260503231938 72 345 9.6 13.9 0.00 0.00 0.00 24 1006.6
20260503231435 73 307 14.8 18.2 0.00 0.00 0.00 23 1006.8
20260503230931 72 323 13.9 20.0 0.00 0.00 0.00 23 1006.6
20260503230428 72 321 15.6 20.0 0.00 0.00 0.00 23 1006.8
20260503225926 73 291 9.6 20.9 0.00 0.00 0.00 23 1006.6
20260503225422 72 336 11.3 20.0 0.00 0.00 0.00 23 1006.8
20260503224918 73 317 10.4 18.2 0.00 0.00 0.00 24 1006.9
20260503224415 72 301 13.0 15.6 0.00 0.00 0.00 23 1006.6
20260503223913 72 338 9.6 13.0 0.00 0.00 0.00 24 1007.0
20260503223410 72 329 13.0 17.4 0.00 0.00 0.00 23 1007.0
20260503222911 72 310 12.2 20.0 0.00 0.00 0.00 23 1006.9
20260503222409 73 325 14.8 17.4 0.00 0.00 0.00 23 1007.3
20260503221907 72 303 13.0 15.6 0.00 0.00 0.00 23 1006.8
20260503221406 72 315 12.2 17.4 0.00 0.00 0.00 23 1007.1
20260503220901 72 308 12.2 23.5 0.00 0.00 0.00 23 1007.4
20260503220358 73 291 8.7 17.4 0.00 0.00 0.00 23 1007.3
20260503215855 72 284 10.4 18.2 0.00 0.00 0.00 23 1007.5
20260503215352 72 316 10.4 18.2 0.00 0.00 0.00 24 1007.3
20260503214849 72 323 11.3 19.1 0.00 0.00 0.00 24 1007.5
20260503214347 73 296 11.3 17.4 0.00 0.00 0.00 24 1007.4
20260503213844 72 315 13.0 17.4 0.00 0.00 0.00 24 1007.6
20260503213342 72 346 8.7 15.6 0.00 0.00 0.00 24 1007.6
20260503212839 72 305 10.4 14.8 0.00 0.00 0.00 24 1007.7
20260503212336 73 304 11.3 13.9 0.00 0.00 0.00 23 1007.9
20260503211833 72 306 16.5 20.9 0.00 0.00 0.00 23 1007.9
20260503211330 72 280 14.8 21.7 0.00 0.00 0.00 23 1008.0
20260503210825 72 331 10.4 18.2 0.00 0.00 0.00 23 1007.9
20260503210323 71 313 9.6 11.3 0.00 0.00 0.00 23 1008.1
20260503205818 71 299 10.4 18.2 0.00 0.00 0.00 23 1008.4
20260503205314 71 309 7.0 12.2 0.00 0.00 0.00 23 1008.4
20260503204811 71 304 9.6 15.6 0.00 0.00 0.00 23 1008.4
20260503204309 71 325 10.4 17.4 0.00 0.00 0.00 24 1008.2
20260503203806 71 318 12.2 17.4 0.00 0.00 0.00 24 1008.5
20260503203303 71 296 11.3 21.7 0.00 0.00 0.00 24 1008.2
20260503202800 70 321 13.9 18.2 0.00 0.00 0.00 24 1008.5
20260503202258 71 298 13.9 22.6 0.00 0.00 0.00 23 1008.6
20260503201755 70 341 12.2 18.2 0.00 0.00 0.00 24 1008.6
20260503201253 69 288 9.6 18.2 0.00 0.00 0.00 24 1008.5
20260503200750 70 330 14.8 18.2 0.00 0.00 0.00 24 1008.8
20260503200246 71 297 14.8 20.9 0.00 0.00 0.00 24 1008.5
20260503195743 70 289 10.4 17.4 0.00 0.00 0.00 24 1008.8
20260503195239 70 289 12.2 17.4 0.00 0.00 0.00 24 1008.9
20260503194738 69 329 9.6 19.1 0.00 0.00 0.00 24 1009.0
20260503194233 69 284 8.7 13.9 0.00 0.00 0.00 25 1009.1
20260503193729 70 290 11.3 20.9 0.00 0.00 0.00 25 1009.2
20260503193225 69 317 11.3 14.8 0.00 0.00 0.00 23 1009.2
20260503192721 70 326 13.0 20.9 0.00 0.00 0.00 24 1009.3
20260503192216 69 311 9.6 15.6 0.00 0.00 0.00 25 1009.7
20260503191714 68 336 8.7 17.4 0.00 0.00 0.00 27 1009.7
20260503191211 69 10 9.6 15.6 0.00 0.00 0.00 26 1009.5
20260503190707 68 325 5.2 12.2 0.00 0.00 0.00 27 1009.5
20260503190204 69 331 11.3 20.0 0.00 0.00 0.00 26 1009.5
20260503185702 69 302 8.7 13.9 0.00 0.00 0.00 26 1009.7
20260503185156 68 290 9.6 14.8 0.00 0.00 0.00 26 1009.9
20260503184651 68 329 11.3 13.9 0.00 0.00 0.00 27 1010.1
20260503184148 67 301 8.7 12.2 0.00 0.00 0.00 27 1010.1
20260503183644 68 348 7.0 13.9 0.00 0.00 0.00 28 1010.0
20260503183142 68 279 5.2 9.6 0.00 0.00 0.00 27 1010.2
20260503182640 68 341 12.2 15.6 0.00 0.00 0.00 26 1010.2
20260503182139 68 299 8.7 12.2 0.00 0.00 0.00 27 1009.9
20260503181635 67 331 11.3 14.8 0.00 0.00 0.00 27 1010.4
20260503181132 68 313 7.8 12.2 0.00 0.00 0.00 27 1010.1
20260503180628 67 326 5.2 9.6 0.00 0.00 0.00 30 1010.3
20260503180126 67 315 9.6 14.8 0.00 0.00 0.00 29 1010.4
20260503175623 67 330 9.6 14.8 0.00 0.00 0.00 30 1010.4
20260503175120 66 318 6.1 11.3 0.00 0.00 0.00 31 1010.7
20260503174617 66 312 5.2 11.3 0.00 0.00 0.00 31 1010.7
20260503174114 65 332 11.3 13.0 0.00 0.00 0.00 30 1010.7
20260503173609 66 292 7.8 12.2 0.00 0.00 0.00 30 1010.9
20260503173106 66 356 7.0 11.3 0.00 0.00 0.00 28 1010.9
20260503172603 66 312 9.6 12.2 0.00 0.00 0.00 28 1010.9
20260503172100 66 327 9.6 13.0 0.00 0.00 0.00 28 1010.9
20260503171556 66 330 6.1 12.2 0.00 0.00 0.00 29 1011.1
20260503171054 65 335 7.8 15.6 0.00 0.00 0.00 30 1011.1
20260503170550 65 303 7.8 13.0 0.00 0.00 0.00 30 1011.0
20260503150943 60 285 7.8 9.6 0.00 0.00 0.00 35 1011.2
20260503150439 60 307 9.6 12.2 0.00 0.00 0.00 36 1011.1
20260503131332 52 281 7.8 9.6 0.00 0.00 0.00 63 1011.4
20260503130829 51 312 7.8 9.6 0.00 0.00 0.00 64 1011.7
20260503130327 50 317 7.0 8.7 0.00 0.00 0.00 65 1011.3
20260503110721 38 49 0.9 0.9 0.00 0.00 0.00 84 1012.1
20260503110218 37 4 2.6 2.6 0.00 0.00 0.00 86 1012.0
20260503100144 38 339 0.0 0.0 0.00 0.00 0.00 84 1012.8
20260503081533 47 95 1.7 1.7 0.00 0.00 0.00 66 1013.1
20260503081030 46 95 0.0 0.9 0.00 0.00 0.00 67 1013.4
20260503080526 46 97 0.0 0.9 0.00 0.00 0.00 67 1013.6
20260503072500 45 92 0.9 1.7 0.00 0.00 0.00 68 1013.7
20260503071957 43 100 0.9 1.7 0.00 0.00 0.00 71 1014.0
20260503071454 44 105 0.9 0.9 0.00 0.00 0.00 70 1013.9
20260503070950 43 105 0.0 0.0 0.00 0.00 0.00 71 1013.9
20260503070447 45 107 0.9 1.7 0.00 0.00 0.00 68 1013.9
20260503054906 45 95 0.0 0.0 0.00 0.00 0.00 67 1014.3
20260503054402 43 74 0.9 0.9 0.00 0.00 0.00 71 1014.2
20260503053900 46 96 0.0 0.9 0.00 0.00 0.00 65 1014.2
20260503053358 46 90 0.0 0.0 0.00 0.00 0.00 65 1014.3
20260503052854 46 79 0.0 0.9 0.00 0.00 0.00 66 1014.3
20260503052351 47 73 0.0 0.9 0.00 0.00 0.00 65 1014.4
20260503051847 46 65 0.0 0.9 0.00 0.00 0.00 67 1014.5
20260503051344 45 32 0.9 0.9 0.00 0.00 0.00 70 1014.7
20260503050841 45 346 1.7 1.7 0.00 0.00 0.00 69 1014.6
20260503050337 43 24 1.7 1.7 0.00 0.00 0.00 73 1014.7
20260503045835 41 305 0.9 1.7 0.00 0.00 0.00 77 1014.5
20260503045332 45 308 1.7 1.7 0.00 0.00 0.00 72 1014.5
20260503044828 46 14 0.0 0.9 0.00 0.00 0.00 67 1014.4
20260503044325 46 3 0.9 0.9 0.00 0.00 0.00 69 1014.3
20260503043822 44 346 1.7 2.6 0.00 0.00 0.00 72 1014.4
20260503043319 46 35 1.7 1.7 0.00 0.00 0.00 68 1014.4
20260503042815 47 41 0.9 1.7 0.00 0.00 0.00 66 1014.5
20260503042312 49 43 0.9 0.9 0.00 0.00 0.00 63 1014.4
20260503041808 50 43 0.9 0.9 0.00 0.00 0.00 62 1014.2
20260503041306 50 20 0.0 0.9 0.00 0.00 0.00 61 1014.4
20260503040803 48 7 0.9 0.9 0.00 0.00 0.00 66 1014.4
20260503040301 48 351 2.6 2.6 0.00 0.00 0.00 66 1014.3
20260503035757 51 346 3.5 4.3 0.00 0.00 0.00 64 1014.5